Regional Weather Roundup
Issued by NWS Sioux Falls, SD

Home | Current Version | Previous Version | Text Only | Print | Product List | Glossary On
Versions: 1 2 3 4 5 6 7 8 9 10 11 12 13 14 15 16 17 18 19 20 21 22 23 24 25 26 27 28 29 30 31 32 33 34 35 36 37 38 39 40 41 42 43 44 45 46 47 48 49 50
000
ASUS43 KFSD 231310
RWRFSD

WEATHER ROUNDUP FOR SE SOUTH DAKOTA/SW MINNESOTA/NW IOWA
NATIONAL WEATHER SERVICE SIOUX FALLS SD
800 AM CDT SUN JUL 23 2017

NOTE: "FAIR" INDICATES FEW OR NO CLOUDS BELOW 12,000 FEET WITH NO
SIGNIFICANT WEATHER AND OR OBSTRUCTIONS TO VISIBILITY.


SDZ038>040-050-052>070-231400-
SOUTHEAST SOUTH DAKOTA

CITY           SKY/WX    TMP DP  RH WIND       PRES   REMARKS
BROOKINGS      MOSUNNY   65  60  84 NW9       29.99S
CHAMBERLAIN    SUNNY     69  59  69 N3        30.04S
HURON          SUNNY     64  61  90 N9        30.01R
MADISON        FAIR      64  64 100 NW6       30.00R
MITCHELL       SUNNY     65  61  87 N5        30.01R
SIOUX FALLS    MOSUNNY   69  61  75 CALM      29.99R
WINNER         FAIR      64  52  64 W3        30.06R
YANKTON        SUNNY     69  63  81 NW8       30.00R
$$

MNZ071-072-080-081-089-090-097-098-231400-
SOUTHWEST MINNESOTA

CITY           SKY/WX    TMP DP  RH WIND       PRES   REMARKS
FAIRMONT       SUNNY     67  63  87 NW10      29.93R
JACKSON        SUNNY     64  59  82 CALM      29.96R
LUVERNE        SUNNY     63  57  82 W3        29.99R
MARSHALL       SUNNY     65  60  84 NW10      29.97R
MONTEVIDEO     SUNNY     68  61  77 N9        29.96R
PIPESTONE      SUNNY     64  57  77 N7        29.99R
REDWOOD FALLS  SUNNY     66  59  78 NW8       29.94R
WINDOM         SUNNY     66  59  77 NW13      29.96R
WORTHINGTON    SUNNY     65  59  81 N10       29.98R
$$

IAZ001>003-012>014-020>022-031-032-NEZ013-014-SDZ071-231400-
NORTHWEST IOWA

CITY           SKY/WX    TMP DP  RH WIND       PRES   REMARKS
CHEROKEE       SUNNY     68  66  94 CALM      29.96R
DENISON        SUNNY     72  72 100 CALM      29.96S
ESTHERVILLE    SUNNY     65  63  93 MISG      29.93R
ORANGE CITY    SUNNY     68  63  83 NW5       29.98R
SHELDON        SUNNY     66  63  88 NW5       29.96R
SIOUX CITY     SUNNY     72  70  93 N6        29.96R
SPENCER        SUNNY     67  62  84 NW8       29.95S
STORM LAKE     SUNNY     70  64  83 NW6       29.96R
$$

ABBREVIATIONS USED IN REMARKS
   TC - TEMPERATURE IN CELSIUS
  WCI - WIND CHILL INDEX
   HX - HEAT INDEX
  VSB - VISIBILITY





USA.gov is the U.S. government's official web portal to all federal, state and local government web resources and services.